This is the latest recevied weather packets stored in our database for station/object M0VEM-7. If no packets are shown the sender has not sent any weather packets the latest 10 day(s).
| Time | Temp. | Humidity | Pressure | Rain* | Wind** | Luminosity | Snow |
|---|---|---|---|---|---|---|---|
| 1788009002 | 21.11° C | 63% | 1002.8 hPa | - | - | - | - |
| 1788008402 | 21.11° C | 64% | 1002.6 hPa | - | - | - | - |
| 1788007801 | 21.11° C | 64% | 1002.9 hPa | - | - | - | - |
| 1788007200 | 21.11° C | 64% | 1003 hPa | - | - | - | - |
| 1788006600 | 21.11° C | 65% | 1003.3 hPa | - | - | - | - |
| 1788005999 | 21.11° C | 65% | 1003.7 hPa | - | - | - | - |
| 1788005399 | 21.11° C | 66% | 1003.7 hPa | - | - | - | - |
| 1788004799 | 20.56° C | 67% | 1003.7 hPa | - | - | - | - |
| 1788004198 | 20.56° C | 67% | 1003.9 hPa | - | - | - | - |
| 1788000633 | 21.67° C | 62% | 1005.3 hPa | - | - | - | - |
| 1787998031 | 21.11° C | 62% | 1005.6 hPa | - | - | - | - |
| 1787997430 | 21.11° C | 62% | 1005.8 hPa | - | - | - | - |
| 1787996830 | 21.11° C | 63% | 1005.9 hPa | - | - | - | - |
| 1787994893 | 20.56° C | 64% | 1006.7 hPa | - | - | - | - |
| 1787992084 | 18.33° C | 57% | 1006.4 hPa | - | - | - | - |
| 1787991483 | 18.33° C | 57% | 1006.7 hPa | - | - | - | - |
| 1787990884 | 18.33° C | 58% | 1006.9 hPa | - | - | - | - |
| 1787990282 | 18.33° C | 57% | 1007 hPa | - | - | - | - |
| 1787989682 | 17.78° C | 58% | 1006.9 hPa | - | - | - | - |
| 1787989081 | 17.78° C | 58% | 1006.7 hPa | - | - | - | - |
| 1787988481 | 17.78° C | 57% | 1007 hPa | - | - | - | - |
| 1787987880 | 17.22° C | 57% | 1007.3 hPa | - | - | - | - |
| 1787987280 | 17.22° C | 57% | 1007.2 hPa | - | - | - | - |
| 1787986680 | 17.22° C | 57% | 1006.7 hPa | - | - | - | - |
| 1787986080 | 16.67° C | 57% | 1006.8 hPa | - | - | - | - |
* Rain since midnight (hover to see other rain measurements)
** Current wind speed in m/s (hover to see current wind gust speed)